Home   Weather   Japan   Osaka   Past weeks
Flag for Japan

Past Weather in Osaka, Japan — Yesterday and Last 2 Weeks

Currently: 68 °F. Mostly cloudy. (Weather station: Kansai International Airport, Japan). See more current weather

Past Weather in Osaka — Graph

°F

Osaka Temperature Yesterday

Maximum temperature yesterday: 68 °F (at 5:30 pm)
Minimum temperature yesterday: 59 °F (at 12:00 am)
Average temperature yesterday: 64 °F

High & Low Weather Summary for the Past Weeks

 TemperatureHumidityPressure
High75 °F (May 1, 11:44 am)100% (Apr 28, 4:30 pm)30.21 "Hg (Apr 28, 4:30 pm)
Low48 °F (Apr 27, 3:30 am)30% (May 3, 4:00 pm)29.47 "Hg (May 1, 2:30 pm)
Average61 °F75%29.93 "Hg
* Reported Apr 24 3:00 am — May 9 3:30 am, Osaka. Weather by CustomWeather, © 2021

Note: Actual official high and low records may vary slightly from our data, if they occured in-between our weather recording intervals... More about our weather records

Osaka Weather History for the Previous 24 Hours

Scroll right to see more
 ConditionsComfort  
Time TempWeatherWind HumidityBarometerVisibility
3:30 am
Sun, May 9
66 °FPassing clouds.17 mph78%29.68 "HgN/A
3:00 am66 °FClear.18 mph78%29.65 "HgN/A
2:30 am66 °FMild.20 mph83%29.68 "HgN/A
2:00 am66 °FMild.20 mph83%29.68 "HgN/A
1:30 am66 °FMild.18 mph83%29.65 "HgN/A
12:30 am66 °FMild.15 mph83%29.68 "HgN/A
12:00 am66 °FMild.16 mph83%29.68 "HgN/A
11:30 pm
Sat, May 8
66 °FMild.16 mph83%29.71 "HgN/A
11:00 pm68 °FMild.18 mph78%29.71 "HgN/A
10:30 pm66 °FPassing clouds.16 mph88%29.71 "HgN/A
10:00 pm66 °FPassing clouds.12 mph83%29.71 "HgN/A
9:30 pm64 °FPassing clouds.9 mph88%29.71 "HgN/A
9:00 pm64 °FPartly cloudy.2 mph88%29.71 "HgN/A
8:30 pm68 °FPassing clouds.8 mph78%29.71 "HgN/A
8:00 pm66 °FPassing clouds.9 mph83%29.71 "HgN/A
7:30 pm64 °FPartly cloudy.13 mph88%29.68 "HgN/A
7:00 pm64 °FPartly cloudy.14 mph88%29.68 "HgN/A
6:30 pm64 °FMostly cloudy.10 mph88%29.68 "HgN/A
6:00 pm64 °FLight rain. Mostly cloudy.14 mph88%29.71 "HgN/A
5:30 pm68 °FMostly cloudy.15 mph78%29.68 "HgN/A
5:00 pm66 °FLight rain. Mostly cloudy.14 mph83%29.68 "HgN/A
4:30 pm66 °FLight rain. Mostly cloudy.13 mph83%29.71 "HgN/A
4:00 pm64 °FLight rain. Mostly cloudy.8 mph94%29.74 "HgN/A
3:30 pm64 °FLight rain. Mostly cloudy.8 mph88%29.71 "HgN/A
3:00 pm64 °FMostly cloudy.12 mph88%29.74 "HgN/A
2:30 pm64 °FMostly cloudy.15 mph88%29.74 "HgN/A
2:00 pm66 °FMostly cloudy.13 mph88%29.74 "HgN/A
1:30 pm66 °FOvercast.12 mph83%29.77 "HgN/A
1:00 pm66 °FOvercast.13 mph83%29.77 "HgN/A
12:30 pm64 °FOvercast.9 mph88%29.77 "HgN/A
12:00 pm64 °FOvercast.9 mph83%29.80 "HgN/A
11:30 am64 °FPartly sunny.7 mph83%29.80 "HgN/A
11:00 am64 °FPartly sunny.5 mph88%29.83 "HgN/A
10:30 am64 °FPartly sunny.3 mph88%29.83 "HgN/A
10:00 am64 °FPartly sunny.5 mph83%29.83 "HgN/A
9:30 am64 °FPartly sunny.6 mph83%29.83 "HgN/A
9:00 am63 °FPartly sunny.6 mph88%29.83 "HgN/A
8:30 am63 °FBroken clouds.5 mph88%29.83 "HgN/A
7:30 am63 °FScattered clouds.6 mph83%29.83 "HgN/A
7:00 am63 °FScattered clouds.6 mph83%29.83 "HgN/A
6:30 am61 °FPartly sunny.5 mph88%29.83 "HgN/A
6:00 am61 °FPartly sunny.6 mph88%29.83 "HgN/A
5:30 am61 °FScattered clouds.3 mph88%29.80 "HgN/A
5:00 am61 °FPassing clouds.3 mph88%29.80 "HgN/A
Weather by CustomWeather, © 2021

See weather overview